Regional Weather Roundup
Issued by NWS Upton, NY

Current Version | Previous Version | Graphics & Text | Print | Product List | Glossary Off
Versions: 1 2 3 4 5 6 7 8 9 10 11 12 13 14 15 16 17 18 19 20 21 22 23 24 25 26 27 28 29 30 31 32 33 34 35 36 37 38 39 40 41 42 43 44 45 46 47

000
ASUS41 KOKX 201405
RWROKX

REGIONAL WEATHER ROUNDUP
NATIONAL WEATHER SERVICE NEW YORK NY
1000 AM EDT SAT SEP 20 2014

NOTE: "FAIR" INDICATES FEW OR NO CLOUDS BELOW 12,000 FEET WITH NO
SIGNIFICANT WEATHER AND/OR OBSTRUCTIONS TO VISIBILITY.

NYZ071-072-176-178-NJZ106-104-201500-
NEW YORK CITY METRO AREA


CITY           SKY/WX    TMP DP  RH WIND       PRES   REMARKS
CENTRAL PARK   PTSUNNY   68  55  63 VRB5      30.31F
LAGUARDIA APRT PTSUNNY   69  55  60 S14       30.28F
KENNEDY INTL   PTSUNNY   71  56  58 S12       30.30F
NEWARK/LIBERTY PTSUNNY   69  57  65 S8        30.29F
BRNX BOT. GARD   N/A     68  55  64 SE6       30.30F
TETERBORO      PTSUNNY   67  54  63 CALM      30.28S
$$

NYZ177-179-078>081-201500-
LONG ISLAND NEW YORK

CITY           SKY/WX    TMP DP  RH WIND       PRES   REMARKS
FARMINGDALE    MOSUNNY   70  57  63 S13       30.30S
ISLIP          MOSUNNY   68  56  65 S15       30.28F
SHIRLEY        MOSUNNY   68  55  63 SE12G23   30.30F
WESTHAMPTON    SUNNY     68  54  60 SE9G20    30.32F
MONTAUK POINT    N/A     66  54  65 SE9       30.32F
$$

NYZ052-065-067-201500-
HUDSON VALLEY

CITY           SKY/WX    TMP DP  RH WIND       PRES   REMARKS
WHITE PLAINS   MOSUNNY   65  55  70 S10       30.29F
NEWBURGH       PTSUNNY   61  55  82 MISG      30.30
MONTGOMERY     CLOUDY    61  53  75 CALM      30.28S
POUGHKEEPSIE   CLOUDY    64  54  69 SW6       30.28R
ALBANY         PTSUNNY   62  51  67 S16G22    30.23F
$$

NJZ001-105-106-008-010-013-015-019>022-104-201500-
NEW JERSEY

CITY           SKY/WX    TMP DP  RH WIND       PRES   REMARKS
NEWARK/LIBERTY PTSUNNY   69  57  65 S8        30.29F
TETERBORO      PTSUNNY   67  54  63 CALM      30.28S
CALDWELL       SUNNY     64  53  67 CALM      30.29F
MORRISTOWN     MOSUNNY   64  55  72 CALM      30.29F
SOMERVILLE     MOSUNNY   69  58  67 S6        30.27F
LINDEN         FAIR      74  60  61 S12       30.30S
SUSSEX         CLOUDY    66  56  70 SW5       30.28S
ANDOVER          N/A     66  56  70 SW9       30.28S
TRENTON        SUNNY     68  58  70 S8        30.28F
MILLVILLE      SUNNY     71  61  70 SE7       30.27S
ATLANTIC CITY  MOSUNNY   73  60  63 SE12      30.27S
WRIGHTSTOWN    SUNNY     70  61  74 VRB7      30.26S
TOMS RIVER     MOSUNNY   72  57  60 SE9       30.29S
BELMAR         PTSUNNY   70  57  64 SE9       30.29S
$$

PAZ047>061-062-071-201500-
EASTERN PENNSYLVANIA

CITY           SKY/WX    TMP DP  RH WIND       PRES   REMARKS
PHILADELPHIA   MOSUNNY   69  59  70 E5        30.28F
ALLENTOWN      PTSUNNY   66  56  70 VRB5      30.28S
SCRANTON       CLOUDY    63  55  75 S6        30.25S
$$

CTZ002-004>006-009-010-012-RIZ004-006-007-MAZ004-011-015-201500-
SOUTHERN NEW ENGLAND
 IN CT

CITY           SKY/WX    TMP DP  RH WIND       PRES   REMARKS
BRADLEY INTL   PTSUNNY   60  48  64 SW6       30.30F
HARTFORD       MOSUNNY   63  52  67 S7        30.30F
DANBURY        SUNNY     64  55  72 S13       30.30F
WTRBRY/OXFORD  PTSUNNY   63  54  72 SW12G20   30.31F
BRIDGEPORT     SUNNY     67  57  70 S13       30.30S
MERIDEN        PTSUNNY   65  53  65 S10       30.30F
NEW HAVEN      MOSUNNY   68  55  63 S13       30.31S
CHESTER        FAIR      64  54  68 S13       30.31S
GROTON         SUNNY     65  54  67 SE16      30.31F
WILLIMANTIC    SUNNY     60  49  66 SW6       30.31F

 IN RI

CITY           SKY/WX    TMP DP  RH WIND       PRES   REMARKS
PROVIDENCE     MOSUNNY   63  49  60 S9        30.33F
BLOCK ISLAND   SUNNY     66  50  55 S15       30.32F
WESTERLY       SUNNY     65  51  60 SE13      30.33F

 IN MA

CITY           SKY/WX    TMP DP  RH WIND       PRES   REMARKS
BOSTON         SUNNY     61  47  59 S13       30.32F
WORCESTER      SUNNY     56  47  71 S13       30.31F
WESTFIELD      CLOUDY    55  47  74 S7        30.30F
PROVINCETOWN   SUNNY     61  48  63 S12       30.35F
NANTUCKET      SUNNY     61  49  64 SE10      30.36S
$$

ANZ330-335-338-340-345-350-353-355-201500-
COASTAL MARINE OBSERVATIONS


STATION/POSITION TIME  SKY/WX   TEMP    WIND        PRES    VSBY  WAVE
                                AIR SEA DIR/SP/G                  HT/PER
                 (UTC)          (F)     (DEG/KT/KT) (MB)    (MI)  (FT/S)
NY HARB ENTRANCE 1400            68 69  140/ 12/ 16 1025.9          3/ 8
4S FIRE IS       1400               69                N/A           3/ 9
20S FIRE ISLAND  1400            67 67  140/ 14/ 16 1026.0          4/ 8
23SW MTP         1400                                 N/A           3/ 6
HUDSON CANYON    1400            69 72  110/ 14/ 17 1025.3          4/ 8
EXECUTION ROCKS  1400            66 70   80/  2/  6   N/A
WESTERN LI SOUND 1400            65     140/  6/  8   N/A           1
CENTRAL LI SOUND 1300            64 70  170/ 14/ 17   N/A           1/ 2
EASTERN LI SOUND 1300            64 68  160/ 14/ 17   N/A
ROBBINS REEF     1400            67     160/ 15/ 17 1024.3
$$


>>>>>>>>>>>>>>>>>>>>>>>>>>>> KEY <<<<<<<<<<<<<<<<<<<<<<<<<<<
>                                                          <
>     SKY/WX - SKY CONDITION/PRESENT WEATHER               <
>     TMP    - TEMPERATURE IN FAHRENHEIT                   <
>     DP     - DEWPOINT IN FAHRENHEIT                      <
>     RH     - RELATIVE HUMIDITY IN PERCENT                <
>     WIND   - DIRECTION AND SPEED IN MPH                  <
>     PRES   - MEAN SEA LEVEL PRESSURE IN INCHES OF HG     <
>     WCI    - WIND CHILL INDEX                            <
>     VSB    - VISIBILITY IN MILES                         <
>     HX     - HEAT INDEX                                  <
>     TC     - TEMPERATURE IN CELSIUS                      <
>     VRB    - VARIABLE WIND DIRECTION                     <
>                                                          <
>>>>>>>>>>>>>>>>>>>>>>>>>>>> KEY <<<<<<<<<<<<<<<<<<<<<<<<<<<





USA.gov is the U.S. government's official web portal to all federal, state and local government web resources and services.